Regional Weather Roundup
Issued by NWS

Home | Current Version | Previous Version | Text Only | Print | Product List | Glossary On
Versions: 1 2 3 4 5 6 7 8 9 10 11 12 13 14 15 16 17 18 19 20 21 22 23 24 25 26 27 28 29 30 31 32 33 34 35 36 37 38 39 40 41 42 43 44 45 46 47 48 49 50
000
ASUS43 KMKX 280400
RWRWI

WISCONSIN REGIONAL WEATHER ROUNDUP
NATIONAL WEATHER SERVICE MILWAUKEE/SULLIVAN WI
1100 PM CDT WED MAY 27 2015

NOTE: "FAIR" INDICATES FEW OR NO CLOUDS BELOW 12,000 FEET WITH NO
SIGNIFICANT WEATHER AND/OR OBSTRUCTIONS TO VISIBILITY.

WIZ001-002-006>008-014>016-023>028-280500-
NORTHWEST WISCONSIN

CITY           SKY/WX    TMP DP  RH WIND       PRES   REMARKS
SUPERIOR ARPT  CLEAR     59  55  84 CALM      30.00R
ASHLAND        CLEAR     56  55  97 CALM      30.01R
HAYWARD        CLEAR     55  53  93 CALM      30.04R
SIREN          CLEAR     59  53  82 CALM      30.03R
CUMBERLAND     CLEAR     61  55  82 CALM      30.03R
RICE LAKE      CLEAR     64  55  72 SE3       30.06R
CHETEK         CLEAR     62  55  79 CALM      30.04R
LADYSMITH      PTCLDY    59  57  92 CALM      30.06R
EAU CLAIRE     CLEAR     67  54  63 SE5       30.04R
MENOMONIE      CLEAR     67  62  84 CALM      30.03R
NEW RICHMOND   CLEAR     64  57  80 CALM      30.04R
OSCEOLA        CLEAR     61  61 100 CALM      30.05R
$$

WIZ003>005-009-010-017-018-280500-
NORTH CENTRAL WISCONSIN

CITY           SKY/WX    TMP DP  RH WIND       PRES   REMARKS
MANITOWISH WTR CLEAR     57  57  99 CALM      30.04S
ARBOR VITAE    PTCLDY    57  55  94 CALM      30.05R
WOODRUFF       PTCLDY    57  55  94 CALM      30.05R
RHINELANDER    PTCLDY    55  53  93 CALM      30.06S
EAGLE RIVER    CLEAR     56  56  97 CALM      30.05R
LAND O LAKES   CLEAR     52  52  97 CALM      30.06S
PHILLIPS       CLEAR     56  56  98 CALM      30.04R
TOMAHAWK       PTCLDY    56  54  93 CALM      30.06F
MEDFORD        MOCLDY    60  54  81 CALM      30.06R
MERRILL        FOG       54  54 100 CALM      30.07S VSB 3/4
$$

WIZ029-030-035-036-043>047-280500-
CENTRAL WISCONSIN

CITY           SKY/WX    TMP DP  RH WIND       PRES   REMARKS
WAUSAU         MOCLDY    58  56  93 E5        30.05S
MOSINEE        MOCLDY    57  55  94 SE3       30.07S
MARSHFIELD     PTCLDY    58  55  90 S5        30.07R
STEVENS POINT  CLOUDY    60  55  82 SE5       30.06F
WAUPACA        RAIN      64  60  86 W10       30.12R
WAUTOMA        NOT AVBL
WISC RAPIDS    MOCLDY    60  56  86 SE3       30.08F
CAMP DOUGLAS   NOT AVBL
$$

WIZ011>013-019>022-031-037>040-048>050-280500-
NORTHEAST WISCONSIN

CITY           SKY/WX    TMP DP  RH WIND       PRES   REMARKS
ANTIGO         PTCLDY    53  53  99 NE5       30.08R
SHAWANO        MOCLDY    61  57  85 W3        30.06F
OCONTO         CLOUDY    60  58  95 SW5       30.04R
STURGEON BAY   CLOUDY    59  54  82 S6        30.07R
GREEN BAY      CLOUDY    66  54  65 NW9       30.06R
MANITOWOC      NOT AVBL
APPLETON       MOCLDY    66  52  59 N9        30.09R
CLINTONVILLE   LGT RAIN  61  55  82 W7        30.06F
OSHKOSH        MOCLDY    68  58  70 SW5       30.07R
$$

WIZ032>034-041-042-053>061-280500-
SOUTHWEST WISCONSIN

CITY           SKY/WX    TMP DP  RH WIND       PRES   REMARKS
LA CROSSE      CLEAR     69  61  75 SE7       30.04R
SPARTA         CLEAR     60  59  95 CALM      30.07R
VIROQUA        CLEAR     67  59  73 S6        30.08R
BOSCOBEL       CLEAR     61  59  93 CALM      30.08R FOG
PRAIRIE DU CHI CLEAR     64  60  87 CALM      30.07R
PLATTEVILLE    CLEAR     67  59  75 S7        30.10R
$$

WIZ056-057-062-063-064-067-068-280500-
SOUTH CENTRAL WISCONSIN

CITY           SKY/WX    TMP DP  RH WIND       PRES   REMARKS
REEDSBURG      CLEAR     64  60  86 CALM      30.07R
BARABOO/DELLS  CLEAR     63  57  79 CALM      30.08R
LONE ROCK      NOT AVBL
MINERAL POINT  CLEAR     68  59  73 S5        30.10R
MADISON        CLEAR     65  58  78 S3        30.09R
MIDDLETON      CLEAR     64  60  88 CALM      30.10R
WATERTOWN      FAIR     N/A N/A N/A CALM      30.09R
MONROE         CLEAR     63  59  88 S8        30.11R
JANESVILLE     CLEAR     64  55  72 S3        30.10R
$$

WIZ051-052-058>065-066-070>072-280500-
SOUTHEAST WISCONSIN

CITY           SKY/WX    TMP DP  RH WIND       PRES   REMARKS
MILWAUKEE      PTCLDY    62  56  80 S3        30.10R
WAUKESHA       CLEAR     63  54  72 S5        30.11R
MILWAUKEE/TIMM CLEAR     63  52  67 S6        30.09S
RACINE         CLEAR     59  53  80 S5        30.12R
BURLINGTON     CLEAR     56  55  96 CALM      30.11S
KENOSHA        CLEAR     61  55  81 S7        30.11R
FOND DU LAC    MOCLDY    66  57  72 SW6       30.08R
SHEBOYGAN      PTCLDY    59  57  93 S5        30.08R
WEST BEND      PTCLDY    63  55  77 CALM      30.09R
JUNEAU         PTCLDY    64  58  80 S5        30.10R
$$

LSZ147-162-280500-
LAKE SUPERIOR

STATION/POSITION TIME  TEMP    WIND        PRES    WAVE
                       AIR SEA DIR/SP/G            HT/PER
                 (UTC) (F)     (DEG/KT/KT) (MB)    (FT/S)
W MID LAKE BUOY  0250   45 37  110/  8/  8   N/A     1
DEVILS ISLAND    0300           80/ 16/ 17   N/A
PORT WING        0300   63      50/  2/  4   N/A
SAXON HARBOR     0340   61      40/ 10/ 18   N/A
$$

LMZ867-665-643>646-280500-
LAKE MICHIGAN

STATION/POSITION TIME  TEMP    WIND        PRES    WAVE
                       AIR SEA DIR/SP/G            HT/PER
                 (UTC) (F)     (DEG/KT/KT) (MB)    (FT/S)
CHAMBERS ISLAND  0300   57     190/  2/  3   N/A
N MID LAKE BUOY  0250   42 36  250/  6/ 10   N/A     1/ 4
NORTHPORT PIER   0300   63     200/  6/ 11   N/A
SISTER BAY       0348   59     250/ 16/ 19   N/A
ALGOMA LAKESHORE 0308          230/ 18/ 23   N/A
KEWAUNEE LAKESHO 0300   61     190/ 18/ 21   N/A
SHEBOYGAN LAKESH 0300   60     180/ 11/ 12   N/A
PORT WASHINGTON  0340   54     200/  4/ 10   N/A
ATWATER BUOY     0300   53 49  180/  8/  8   N/A
MILWAUKEE LAKESH 0300   56     190/  4/  5   N/A
S MID LAKE BUOY  0250   44 38  180/  6/  6   N/A     0
KENOSHA   LAKESH 0300   62     190/  8/ 11   N/A
$$

TC  - TEMPERATURE IN CELSIUS
VSB - VISIBILITY IN STATUTE MILES
WCI - WIND CHILL INDEX
HX  - HEAT INDEX



USA.gov is the U.S. government's official web portal to all federal, state and local government web resources and services.